Time,TemperatureF,DewpointF,PressureIn,WindDirection,WindDirectionDegrees,WindSpeedMPH,WindSpeedGustMPH,Humidity,HourlyPrecipIn,Conditions,Clouds,dailyrainin,SoftwareType,DateUTC
2013-07-03 00:01:00,70.8,63.2,29.93,NNW,346,0.0,0.0,77,0.00,,,0.00,Wunderground v.1.15,2013-07-03 07:01:00,
2013-07-03 00:07:00,70.8,62.9,29.93,NNW,346,0.0,0.0,76,0.00,,,0.00,Wunderground v.1.15,2013-07-03 07:07:00,
2013-07-03 00:12:00,70.7,62.8,29.94,NNW,346,0.0,0.0,76,0.00,,,0.00,Wunderground v.1.15,2013-07-03 07:12:00,
2013-07-03 00:16:00,70.7,63.1,29.93,NNW,346,0.0,0.0,77,0.00,,,0.00,Wunderground v.1.15,2013-07-03 07:16:00,
2013-07-03 00:23:00,70.8,62.9,29.94,NNW,346,0.0,0.0,76,0.00,,,0.00,Wunderground v.1.15,2013-07-03 07:23:00,
2013-07-03 00:28:00,70.8,63.2,29.93,NNW,346,0.0,0.0,77,0.00,,,0.00,Wunderground v.1.15,2013-07-03 07:28:00,
2013-07-03 00:34:00,71.0,63.1,29.93,NNW,346,0.0,0.0,76,0.00,,,0.00,Wunderground v.1.15,2013-07-03 07:34:00,
2013-07-03 00:39:00,71.3,63.3,29.93,NNW,346,0.0,0.0,76,0.00,,,0.00,Wunderground v.1.15,2013-07-03 07:39:00,
2013-07-03 00:40:00,71.3,63.3,29.93,NNW,346,0.0,0.0,76,0.00,,,0.00,Wunderground v.1.15,2013-07-03 07:40:00,
2013-07-03 00:45:00,71.4,63.1,29.94,NNW,346,0.0,0.0,75,0.00,,,0.00,Wunderground v.1.15,2013-07-03 07:45:00,
2013-07-03 00:50:00,71.5,63.2,29.94,NNW,346,0.0,0.0,75,0.00,,,0.00,Wunderground v.1.15,2013-07-03 07:50:00,
2013-07-03 00:56:00,71.4,63.1,29.94,NNW,346,0.0,0.0,75,0.00,,,0.00,Wunderground v.1.15,2013-07-03 07:56:00,
2013-07-03 01:01:00,71.5,63.2,29.94,NNW,346,0.0,0.0,75,0.00,,,0.00,Wunderground v.1.15,2013-07-03 08:01:00,
2013-07-03 01:02:00,71.5,63.2,29.94,NNW,346,0.0,0.0,75,0.00,,,0.00,Wunderground v.1.15,2013-07-03 08:02:00,
2013-07-03 01:08:00,71.5,63.2,29.94,NNW,346,0.0,0.0,75,0.00,,,0.00,Wunderground v.1.15,2013-07-03 08:08:00,
2013-07-03 01:10:00,71.5,63.2,29.94,NNW,346,0.0,0.0,75,0.00,,,0.00,Wunderground v.1.15,2013-07-03 08:10:00,
2013-07-03 01:15:00,71.6,63.3,29.94,NNW,346,0.0,0.0,75,0.00,,,0.00,Wunderground v.1.15,2013-07-03 08:15:00,
2013-07-03 01:16:00,71.5,63.2,29.94,NNW,346,0.0,0.0,75,0.00,,,0.00,Wunderground v.1.15,2013-07-03 08:16:00,
2013-07-03 01:19:00,71.5,63.2,29.94,NNW,346,0.0,0.0,75,0.00,,,0.00,Wunderground v.1.15,2013-07-03 08:19:00,
2013-07-03 01:24:00,71.5,63.2,29.94,NNW,346,0.0,0.0,75,0.00,,,0.00,Wunderground v.1.15,2013-07-03 08:24:00,
2013-07-03 01:29:00,71.3,63.0,29.94,NNW,346,0.0,0.0,75,0.00,,,0.00,Wunderground v.1.15,2013-07-03 08:29:00,
2013-07-03 01:35:00,71.2,62.9,29.94,NNW,346,0.0,0.0,75,0.00,,,0.00,Wunderground v.1.15,2013-07-03 08:35:00,
2013-07-03 01:40:00,71.1,63.1,29.94,NNW,346,1.0,1.0,76,0.00,,,0.00,Wunderground v.1.15,2013-07-03 08:40:00,
2013-07-03 01:42:00,71.0,63.1,29.94,NNW,346,0.0,1.0,76,0.00,,,0.00,Wunderground v.1.15,2013-07-03 08:42:00,
2013-07-03 01:46:00,70.9,63.0,29.94,NNW,346,2.0,2.0,76,0.00,,,0.00,Wunderground v.1.15,2013-07-03 08:46:00,
2013-07-03 01:51:00,70.7,62.8,29.94,NNW,346,0.0,0.0,76,0.00,,,0.00,Wunderground v.1.15,2013-07-03 08:51:00,
2013-07-03 01:55:00,70.4,62.5,29.94,WNW,302,0.0,1.0,76,0.00,,,0.00,Wunderground v.1.15,2013-07-03 08:55:00,
2013-07-03 01:56:00,70.4,62.5,29.94,WNW,294,3.0,3.0,76,0.00,,,0.00,Wunderground v.1.15,2013-07-03 08:56:00,
2013-07-03 02:01:00,70.0,62.5,29.94,WNW,294,1.0,2.0,77,0.00,,,0.00,Wunderground v.1.15,2013-07-03 09:01:00,
2013-07-03 02:06:00,69.5,62.0,29.94,WNW,294,0.0,2.0,77,0.00,,,0.00,Wunderground v.1.15,2013-07-03 09:06:00,
2013-07-03 02:11:00,69.3,62.1,29.94,WNW,294,0.0,2.0,78,0.00,,,0.00,Wunderground v.1.15,2013-07-03 09:11:00,
2013-07-03 02:16:00,69.0,61.9,29.93,WNW,294,0.0,2.0,78,0.00,,,0.00,Wunderground v.1.15,2013-07-03 09:16:00,
2013-07-03 02:21:00,68.8,62.0,29.93,WNW,294,0.0,2.0,79,0.00,,,0.00,Wunderground v.1.15,2013-07-03 09:21:00,
2013-07-03 02:27:00,68.4,61.6,29.93,NW,322,1.0,4.0,79,0.00,,,0.00,Wunderground v.1.15,2013-07-03 09:27:00,
2013-07-03 02:32:00,68.1,61.7,29.93,NW,323,1.0,2.0,80,0.00,,,0.00,Wunderground v.1.15,2013-07-03 09:32:00,
2013-07-03 02:37:00,67.9,61.9,29.94,NW,325,0.0,2.0,81,0.00,,,0.00,Wunderground v.1.15,2013-07-03 09:37:00,
2013-07-03 02:41:00,67.7,61.7,29.94,NW,325,0.0,2.0,81,0.00,,,0.00,Wunderground v.1.15,2013-07-03 09:41:00,
2013-07-03 02:46:00,67.4,61.4,29.94,NNW,334,0.0,2.0,81,0.00,,,0.00,Wunderground v.1.15,2013-07-03 09:46:00,
2013-07-03 02:49:00,67.4,61.7,29.94,NNW,335,0.0,2.0,82,0.00,,,0.00,Wunderground v.1.15,2013-07-03 09:49:00,
2013-07-03 02:50:00,67.4,61.7,29.94,NNW,335,0.0,0.0,82,0.00,,,0.00,Wunderground v.1.15,2013-07-03 09:50:00,
2013-07-03 02:55:00,67.3,61.6,29.93,NNW,335,0.0,0.0,82,0.00,,,0.00,Wunderground v.1.15,2013-07-03 09:55:00,
2013-07-03 03:00:00,67.2,61.5,29.93,NNW,335,0.0,0.0,82,0.00,,,0.00,Wunderground v.1.15,2013-07-03 10:00:00,
2013-07-03 03:04:00,67.1,61.4,29.93,NNW,335,0.0,0.0,82,0.00,,,0.00,Wunderground v.1.15,2013-07-03 10:04:00,
2013-07-03 03:05:00,67.1,61.4,29.93,NNW,335,0.0,0.0,82,0.00,,,0.00,Wunderground v.1.15,2013-07-03 10:05:00,
2013-07-03 03:10:00,67.1,61.4,29.93,NNW,334,0.0,0.0,82,0.00,,,0.00,Wunderground v.1.15,2013-07-03 10:10:00,
2013-07-03 03:15:00,67.0,61.3,29.93,NNW,335,0.0,0.0,82,0.00,,,0.00,Wunderground v.1.15,2013-07-03 10:15:00,
2013-07-03 03:20:00,66.9,61.2,29.94,NNW,334,0.0,0.0,82,0.00,,,0.00,Wunderground v.1.15,2013-07-03 10:20:00,
2013-07-03 03:26:00,66.8,61.5,29.94,NNW,334,0.0,0.0,83,0.00,,,0.00,Wunderground v.1.15,2013-07-03 10:26:00,
2013-07-03 03:31:00,66.8,61.5,29.94,NNW,334,0.0,1.0,83,0.00,,,0.00,Wunderground v.1.15,2013-07-03 10:31:00,
2013-07-03 03:36:00,66.6,61.3,29.94,NNW,335,0.0,1.0,83,0.00,,,0.00,Wunderground v.1.15,2013-07-03 10:36:00,
2013-07-03 03:41:00,66.4,61.1,29.94,NNW,339,0.0,1.0,83,0.00,,,0.00,Wunderground v.1.15,2013-07-03 10:41:00,
2013-07-03 03:46:00,66.3,61.3,29.94,NNW,337,1.0,1.0,84,0.00,,,0.00,Wunderground v.1.15,2013-07-03 10:46:00,
2013-07-03 03:49:00,66.2,61.2,29.94,NNW,338,0.0,2.0,84,0.00,,,0.00,Wunderground v.1.15,2013-07-03 10:49:00,
2013-07-03 03:54:00,66.1,61.1,29.93,NNW,341,0.0,3.0,84,0.00,,,0.00,Wunderground v.1.15,2013-07-03 10:54:00,
2013-07-03 03:55:00,66.1,61.1,29.94,NNW,341,0.0,3.0,84,0.00,,,0.00,Wunderground v.1.15,2013-07-03 10:55:00,
2013-07-03 03:58:00,66.1,61.5,29.94,NNW,342,0.0,3.0,85,0.00,,,0.00,Wunderground v.1.15,2013-07-03 10:58:00,
2013-07-03 04:03:00,66.0,61.4,29.94,NNW,333,0.0,3.0,85,0.00,,,0.00,Wunderground v.1.15,2013-07-03 11:03:00,
2013-07-03 04:08:00,65.9,61.3,29.94,NNW,333,0.0,3.0,85,0.00,,,0.00,Wunderground v.1.15,2013-07-03 11:08:00,
2013-07-03 04:09:00,65.9,61.3,29.94,NNW,333,0.0,3.0,85,0.00,,,0.00,Wunderground v.1.15,2013-07-03 11:09:00,
2013-07-03 04:15:00,65.8,61.2,29.94,NNW,333,0.0,3.0,85,0.00,,,0.00,Wunderground v.1.15,2013-07-03 11:15:00,
2013-07-03 04:19:00,65.8,61.2,29.94,NNW,333,0.0,3.0,85,0.00,,,0.00,Wunderground v.1.15,2013-07-03 11:19:00,
2013-07-03 04:24:00,65.8,61.5,29.94,NNW,333,0.0,0.0,86,0.00,,,0.00,Wunderground v.1.15,2013-07-03 11:24:00,
2013-07-03 04:27:00,65.8,61.5,29.94,NNW,333,0.0,0.0,86,0.00,,,0.00,Wunderground v.1.15,2013-07-03 11:27:00,
2013-07-03 04:32:00,65.7,61.4,29.94,NNW,333,0.0,0.0,86,0.00,,,0.00,Wunderground v.1.15,2013-07-03 11:32:00,
2013-07-03 04:37:00,65.7,61.4,29.94,NNW,333,0.0,0.0,86,0.00,,,0.00,Wunderground v.1.15,2013-07-03 11:37:00,
2013-07-03 04:42:00,65.7,61.4,29.94,NNW,333,0.0,0.0,86,0.00,,,0.00,Wunderground v.1.15,2013-07-03 11:42:00,
2013-07-03 04:46:00,65.6,61.3,29.94,NNW,333,0.0,0.0,86,0.00,,,0.00,Wunderground v.1.15,2013-07-03 11:46:00,
2013-07-03 04:51:00,65.6,61.3,29.94,NNW,333,0.0,2.0,86,0.00,,,0.00,Wunderground v.1.15,2013-07-03 11:51:00,
2013-07-03 04:56:00,65.5,61.2,29.93,NNW,333,0.0,2.0,86,0.00,,,0.00,Wunderground v.1.15,2013-07-03 11:56:00,
2013-07-03 04:59:00,65.5,61.2,29.93,NNW,333,0.0,2.0,86,0.00,,,0.00,Wunderground v.1.15,2013-07-03 11:59:00,
2013-07-03 05:02:00,65.5,61.2,29.94,NNW,333,0.0,0.0,86,0.00,,,0.00,Wunderground v.1.15,2013-07-03 12:02:00,
2013-07-03 05:08:00,65.4,61.1,29.93,NNW,333,0.0,0.0,86,0.00,,,0.00,Wunderground v.1.15,2013-07-03 12:08:00,
2013-07-03 05:12:00,65.3,61.0,29.94,NNW,333,0.0,0.0,86,0.00,,,0.00,Wunderground v.1.15,2013-07-03 12:12:00,
2013-07-03 05:16:00,65.2,60.9,29.94,NNW,333,0.0,0.0,86,0.00,,,0.00,Wunderground v.1.15,2013-07-03 12:16:00,
2013-07-03 05:20:00,65.1,60.8,29.94,NNW,333,0.0,0.0,86,0.00,,,0.00,Wunderground v.1.15,2013-07-03 12:20:00,
2013-07-03 05:25:00,65.1,61.1,29.94,NNW,333,0.0,0.0,87,0.00,,,0.00,Wunderground v.1.15,2013-07-03 12:25:00,
2013-07-03 05:30:00,65.1,61.1,29.94,NNW,333,0.0,0.0,87,0.00,,,0.00,Wunderground v.1.15,2013-07-03 12:30:00,
2013-07-03 05:36:00,65.0,61.0,29.93,NNW,333,0.0,0.0,87,0.00,,,0.00,Wunderground v.1.15,2013-07-03 12:36:00,
2013-07-03 05:41:00,65.0,61.0,29.93,NW,325,0.0,0.0,87,0.00,,,0.00,Wunderground v.1.15,2013-07-03 12:41:00,
2013-07-03 05:46:00,64.9,60.9,29.94,NW,325,0.0,0.0,87,0.00,,,0.00,Wunderground v.1.15,2013-07-03 12:46:00,
2013-07-03 05:47:00,64.9,60.9,29.94,North,360,0.0,0.0,87,0.00,,,0.00,Wunderground v.1.15,2013-07-03 12:47:00,
2013-07-03 05:53:00,64.8,60.8,29.94,NW,325,0.0,0.0,87,0.00,,,0.00,Wunderground v.1.15,2013-07-03 12:53:00,
2013-07-03 05:58:00,64.8,60.8,29.94,NW,325,0.0,0.0,87,0.00,,,0.00,Wunderground v.1.15,2013-07-03 12:58:00,
2013-07-03 06:03:00,64.9,60.9,29.94,NW,321,0.0,0.0,87,0.00,,,0.00,Wunderground v.1.15,2013-07-03 13:03:00,
2013-07-03 06:08:00,64.9,60.9,29.95,NW,321,0.0,0.0,87,0.00,,,0.00,Wunderground v.1.15,2013-07-03 13:08:00,
2013-07-03 06:14:00,64.9,60.9,29.95,NW,320,0.0,0.0,87,0.00,,,0.00,Wunderground v.1.15,2013-07-03 13:14:00,
2013-07-03 06:19:00,64.9,60.9,29.95,NW,320,0.0,0.0,87,0.00,,,0.00,Wunderground v.1.15,2013-07-03 13:19:00,
2013-07-03 06:24:00,64.9,60.9,29.95,NW,320,0.0,0.0,87,0.00,,,0.00,Wunderground v.1.15,2013-07-03 13:24:00,
2013-07-03 06:25:00,64.9,60.9,29.95,NW,320,0.0,0.0,87,0.00,,,0.00,Wunderground v.1.15,2013-07-03 13:25:00,
2013-07-03 06:30:00,64.9,61.3,29.95,NW,320,0.0,0.0,88,0.00,,,0.00,Wunderground v.1.15,2013-07-03 13:30:00,
2013-07-03 06:36:00,65.0,61.4,29.95,NW,315,0.0,0.0,88,0.00,,,0.00,Wunderground v.1.15,2013-07-03 13:36:00,
2013-07-03 06:37:00,65.0,61.4,29.95,NW,314,0.0,0.0,88,0.00,,,0.00,Wunderground v.1.15,2013-07-03 13:37:00,
2013-07-03 06:42:00,65.0,61.4,29.95,NW,314,0.0,0.0,88,0.00,,,0.00,Wunderground v.1.15,2013-07-03 13:42:00,
2013-07-03 06:47:00,65.1,61.5,29.95,NW,307,0.0,0.0,88,0.00,,,0.00,Wunderground v.1.15,2013-07-03 13:47:00,
2013-07-03 06:53:00,65.2,61.6,29.95,NW,307,0.0,0.0,88,0.00,,,0.00,Wunderground v.1.15,2013-07-03 13:53:00,
2013-07-03 06:58:00,65.3,61.7,29.96,NW,307,0.0,0.0,88,0.00,,,0.00,Wunderground v.1.15,2013-07-03 13:58:00,
2013-07-03 07:03:00,65.5,61.9,29.96,NW,307,0.0,0.0,88,0.00,,,0.00,Wunderground v.1.15,2013-07-03 14:03:00,
2013-07-03 07:08:00,65.7,62.0,29.96,NW,307,0.0,0.0,88,0.00,,,0.00,Wunderground v.1.15,2013-07-03 14:08:00,
2013-07-03 07:09:00,65.7,62.0,29.96,NW,307,0.0,0.0,88,0.00,,,0.00,Wunderground v.1.15,2013-07-03 14:09:00,
2013-07-03 07:14:00,65.9,62.2,29.96,NW,307,0.0,0.0,88,0.00,,,0.00,Wunderground v.1.15,2013-07-03 14:14:00,
2013-07-03 07:17:00,65.9,61.9,29.96,NW,307,0.0,1.0,87,0.00,,,0.00,Wunderground v.1.15,2013-07-03 14:17:00,
2013-07-03 07:22:00,66.0,62.0,29.96,NW,307,0.0,0.0,87,0.00,,,0.00,Wunderground v.1.15,2013-07-03 14:22:00,
2013-07-03 07:28:00,66.3,62.3,29.96,NW,307,0.0,0.0,87,0.00,,,0.00,Wunderground v.1.15,2013-07-03 14:28:00,
2013-07-03 07:30:00,66.3,62.3,29.96,NW,307,0.0,0.0,87,0.00,,,0.00,Wunderground v.1.15,2013-07-03 14:30:00,
2013-07-03 07:35:00,66.6,62.6,29.97,NW,307,0.0,1.0,87,0.00,,,0.00,Wunderground v.1.15,2013-07-03 14:35:00,
2013-07-03 07:38:00,66.8,62.8,29.96,WNW,282,0.0,2.0,87,0.00,,,0.00,Wunderground v.1.15,2013-07-03 14:38:00,
2013-07-03 07:41:00,67.1,63.1,29.97,WNW,282,0.0,0.0,87,0.00,,,0.00,Wunderground v.1.15,2013-07-03 14:41:00,
2013-07-03 07:46:00,67.3,63.0,29.96,WNW,282,0.0,0.0,86,0.00,,,0.00,Wunderground v.1.15,2013-07-03 14:46:00,
2013-07-03 07:51:00,67.5,63.2,29.96,WNW,282,1.0,1.0,86,0.00,,,0.00,Wunderground v.1.15,2013-07-03 14:51:00,
2013-07-03 07:56:00,67.9,63.2,29.96,West,275,0.0,2.0,85,0.00,,,0.00,Wunderground v.1.15,2013-07-03 14:56:00,
2013-07-03 07:58:00,68.0,63.0,29.97,West,275,0.0,3.0,84,0.00,,,0.00,Wunderground v.1.15,2013-07-03 14:58:00,
2013-07-03 08:03:00,68.2,63.2,29.97,West,262,0.0,3.0,84,0.00,,,0.00,Wunderground v.1.15,2013-07-03 15:03:00,
2013-07-03 08:08:00,68.4,63.0,29.97,SW,229,0.0,3.0,83,0.00,,,0.00,Wunderground v.1.15,2013-07-03 15:08:00,
2013-07-03 08:13:00,68.8,63.4,29.97,SW,229,0.0,0.0,83,0.00,,,0.00,Wunderground v.1.15,2013-07-03 15:13:00,
2013-07-03 08:15:00,68.8,63.4,29.97,SW,229,1.0,1.0,83,0.00,,,0.00,Wunderground v.1.15,2013-07-03 15:15:00,
2013-07-03 08:20:00,69.5,63.8,29.97,SW,229,0.0,1.0,82,0.00,,,0.00,Wunderground v.1.15,2013-07-03 15:20:00,
2013-07-03 08:26:00,69.9,63.8,29.98,SW,229,0.0,1.0,81,0.00,,,0.00,Wunderground v.1.15,2013-07-03 15:26:00,
2013-07-03 08:28:00,70.1,63.6,29.98,SW,229,0.0,1.0,80,0.00,,,0.00,Wunderground v.1.15,2013-07-03 15:28:00,
2013-07-03 08:34:00,70.4,63.6,29.98,SW,229,0.0,3.0,79,0.00,,,0.00,Wunderground v.1.15,2013-07-03 15:34:00,
2013-07-03 08:39:00,70.7,63.5,29.98,SW,229,0.0,3.0,78,0.00,,,0.00,Wunderground v.1.15,2013-07-03 15:39:00,
2013-07-03 08:40:00,70.8,63.6,29.98,SW,229,0.0,1.0,78,0.00,,,0.00,Wunderground v.1.15,2013-07-03 15:40:00,
2013-07-03 08:45:00,71.2,63.6,29.98,SW,229,0.0,1.0,77,0.00,,,0.00,Wunderground v.1.15,2013-07-03 15:45:00,
2013-07-03 08:51:00,71.7,64.1,29.98,SW,229,0.0,0.0,77,0.00,,,0.00,Wunderground v.1.15,2013-07-03 15:51:00,
2013-07-03 08:52:00,71.8,63.8,29.98,SW,229,0.0,0.0,76,0.00,,,0.00,Wunderground v.1.15,2013-07-03 15:52:00,
2013-07-03 08:57:00,72.1,63.7,29.98,SW,229,0.0,0.0,75,0.00,,,0.00,Wunderground v.1.15,2013-07-03 15:57:00,
2013-07-03 09:02:00,72.5,63.7,29.98,SW,229,0.0,0.0,74,0.00,,,0.00,Wunderground v.1.15,2013-07-03 16:02:00,
2013-07-03 09:07:00,72.9,63.7,29.98,SW,227,0.0,0.0,73,0.00,,,0.00,Wunderground v.1.15,2013-07-03 16:07:00,
2013-07-03 09:12:00,73.4,64.2,29.97,SW,228,0.0,2.0,73,0.00,,,0.00,Wunderground v.1.15,2013-07-03 16:12:00,
2013-07-03 09:17:00,74.5,65.3,29.97,SW,229,0.0,2.0,73,0.00,,,0.00,Wunderground v.1.15,2013-07-03 16:17:00,
2013-07-03 09:22:00,75.8,65.3,29.97,WSW,252,3.0,3.0,70,0.00,,,0.00,Wunderground v.1.15,2013-07-03 16:22:00,
2013-07-03 09:27:00,76.7,65.3,29.96,WSW,252,0.0,3.0,68,0.00,,,0.00,Wunderground v.1.15,2013-07-03 16:27:00,
2013-07-03 09:33:00,77.1,65.3,29.96,NW,326,0.0,5.0,67,0.00,,,0.00,Wunderground v.1.15,2013-07-03 16:33:00,
2013-07-03 09:38:00,77.8,65.5,29.96,NNW,331,2.0,5.0,66,0.00,,,0.00,Wunderground v.1.15,2013-07-03 16:38:00,
2013-07-03 09:44:00,78.0,65.3,29.96,NNW,331,2.0,2.0,65,0.00,,,0.00,Wunderground v.1.15,2013-07-03 16:44:00,
2013-07-03 09:49:00,78.2,65.5,29.96,WNW,296,2.0,3.0,65,0.00,,,0.00,Wunderground v.1.15,2013-07-03 16:49:00,
2013-07-03 09:54:00,79.0,65.3,29.96,WNW,288,0.0,5.0,63,0.00,,,0.00,Wunderground v.1.15,2013-07-03 16:54:00,
2013-07-03 09:59:00,79.5,65.3,29.96,WNW,287,3.0,5.0,62,0.00,,,0.00,Wunderground v.1.15,2013-07-03 16:59:00,
2013-07-03 10:04:00,79.9,65.7,29.95,WNW,283,3.0,3.0,62,0.00,,,0.00,Wunderground v.1.15,2013-07-03 17:04:00,
2013-07-03 10:10:00,80.0,65.3,29.95,NNW,334,0.0,1.0,61,0.00,,,0.00,Wunderground v.1.15,2013-07-03 17:10:00,
2013-07-03 10:15:00,80.1,65.9,29.95,NNW,337,2.0,4.0,62,0.00,,,0.00,Wunderground v.1.15,2013-07-03 17:15:00,
2013-07-03 10:20:00,80.7,66.0,29.95,NW,309,0.0,1.0,61,0.00,,,0.00,Wunderground v.1.15,2013-07-03 17:20:00,
2013-07-03 10:25:00,81.4,66.2,29.95,West,263,2.0,5.0,60,0.00,,,0.00,Wunderground v.1.15,2013-07-03 17:25:00,
2013-07-03 10:31:00,81.7,66.0,29.95,North,5,0.0,2.0,59,0.00,,,0.00,Wunderground v.1.15,2013-07-03 17:31:00,
2013-07-03 10:36:00,81.6,65.4,29.95,NW,309,0.0,5.0,58,0.00,,,0.00,Wunderground v.1.15,2013-07-03 17:36:00,
2013-07-03 10:41:00,81.5,65.8,29.94,WNW,300,3.0,3.0,59,0.00,,,0.00,Wunderground v.1.15,2013-07-03 17:41:00,
2013-07-03 10:46:00,81.6,65.9,29.94,NNW,337,0.0,4.0,59,0.00,,,0.00,Wunderground v.1.15,2013-07-03 17:46:00,
2013-07-03 10:52:00,81.6,65.4,29.94,NNW,344,5.0,5.0,58,0.00,,,0.00,Wunderground v.1.15,2013-07-03 17:52:00,
2013-07-03 10:57:00,81.7,65.5,29.94,NW,324,2.0,5.0,58,0.00,,,0.00,Wunderground v.1.15,2013-07-03 17:57:00,
2013-07-03 11:02:00,82.3,66.0,29.94,North,355,2.0,4.0,58,0.00,,,0.00,Wunderground v.1.15,2013-07-03 18:02:00,
2013-07-03 11:07:00,83.2,65.9,29.94,North,11,1.0,5.0,56,0.00,,,0.00,Wunderground v.1.15,2013-07-03 18:07:00,
2013-07-03 11:12:00,83.1,65.3,29.94,NNW,327,0.0,4.0,55,0.00,,,0.00,Wunderground v.1.15,2013-07-03 18:12:00,
2013-07-03 11:17:00,83.3,65.4,29.94,WNW,285,0.0,5.0,55,0.00,,,0.00,Wunderground v.1.15,2013-07-03 18:17:00,
2013-07-03 11:23:00,83.9,66.0,29.94,West,277,0.0,2.0,55,0.00,,,0.00,Wunderground v.1.15,2013-07-03 18:23:00,
2013-07-03 11:28:00,84.2,65.8,29.94,NNW,334,0.0,5.0,54,0.00,,,0.00,Wunderground v.1.15,2013-07-03 18:28:00,
2013-07-03 11:33:00,84.3,65.8,29.94,NW,318,2.0,6.0,54,0.00,,,0.00,Wunderground v.1.15,2013-07-03 18:33:00,
2013-07-03 11:38:00,84.8,65.8,29.94,SW,236,0.0,6.0,53,0.00,,,0.00,Wunderground v.1.15,2013-07-03 18:38:00,
2013-07-03 11:43:00,85.7,66.0,29.94,SW,236,0.0,2.0,52,0.00,,,0.00,Wunderground v.1.15,2013-07-03 18:43:00,
2013-07-03 11:48:00,85.5,65.9,29.94,NNW,346,1.0,5.0,52,0.00,,,0.00,Wunderground v.1.15,2013-07-03 18:48:00,
2013-07-03 11:53:00,85.3,66.2,29.94,West,266,2.0,5.0,53,0.00,,,0.00,Wunderground v.1.15,2013-07-03 18:53:00,
2013-07-03 11:58:00,86.0,66.3,29.93,NNW,338,4.0,5.0,52,0.00,,,0.00,Wunderground v.1.15,2013-07-03 18:58:00,
2013-07-03 12:03:00,86.5,66.8,29.93,NNW,336,1.0,3.0,52,0.00,,,0.00,Wunderground v.1.15,2013-07-03 19:03:00,
2013-07-03 12:08:00,86.7,66.4,29.93,NNE,24,2.0,3.0,51,0.00,,,0.00,Wunderground v.1.15,2013-07-03 19:08:00,
2013-07-03 12:14:00,86.5,66.2,29.93,NE,37,0.0,1.0,51,0.00,,,0.00,Wunderground v.1.15,2013-07-03 19:14:00,
2013-07-03 12:19:00,86.6,65.7,29.93,NW,313,0.0,3.0,50,0.00,,,0.00,Wunderground v.1.15,2013-07-03 19:19:00,
2013-07-03 12:24:00,86.6,65.7,29.92,WNW,293,3.0,4.0,50,0.00,,,0.00,Wunderground v.1.15,2013-07-03 19:24:00,
2013-07-03 12:29:00,86.9,66.0,29.92,NW,324,0.0,4.0,50,0.00,,,0.00,Wunderground v.1.15,2013-07-03 19:29:00,
2013-07-03 12:35:00,86.5,65.7,29.92,WNW,285,0.0,6.0,50,0.00,,,0.00,Wunderground v.1.15,2013-07-03 19:35:00,
2013-07-03 12:40:00,86.4,65.6,29.91,NW,313,0.0,2.0,50,0.00,,,0.00,Wunderground v.1.15,2013-07-03 19:40:00,
2013-07-03 12:45:00,86.1,65.3,29.91,NNW,331,5.0,5.0,50,0.00,,,0.00,Wunderground v.1.15,2013-07-03 19:45:00,
2013-07-03 12:50:00,85.6,64.2,29.91,NNW,341,3.0,6.0,49,0.00,,,0.00,Wunderground v.1.15,2013-07-03 19:50:00,
2013-07-03 12:55:00,85.4,63.5,29.91,NNW,340,4.0,7.0,48,0.00,,,0.00,Wunderground v.1.15,2013-07-03 19:55:00,
2013-07-03 13:00:00,85.3,64.6,29.90,WNW,292,0.0,4.0,50,0.00,,,0.00,Wunderground v.1.15,2013-07-03 20:00:00,
2013-07-03 13:05:00,85.4,64.1,29.91,WNW,287,0.0,5.0,49,0.00,,,0.00,Wunderground v.1.15,2013-07-03 20:05:00,
2013-07-03 13:11:00,85.6,65.4,29.91,WSW,257,5.0,5.0,51,0.00,,,0.00,Wunderground v.1.15,2013-07-03 20:11:00,
2013-07-03 13:16:00,85.9,65.7,29.90,NW,304,1.0,5.0,51,0.00,,,0.00,Wunderground v.1.15,2013-07-03 20:16:00,
2013-07-03 13:21:00,85.5,65.3,29.89,NNE,21,2.0,4.0,51,0.00,,,0.00,Wunderground v.1.15,2013-07-03 20:21:00,
2013-07-03 13:26:00,85.5,65.3,29.89,NNW,333,3.0,4.0,51,0.00,,,0.00,Wunderground v.1.15,2013-07-03 20:26:00,
2013-07-03 13:31:00,85.5,64.7,29.89,WNW,298,1.0,3.0,50,0.00,,,0.00,Wunderground v.1.15,2013-07-03 20:31:00,
2013-07-03 13:36:00,85.4,64.6,29.89,NNW,331,1.0,4.0,50,0.00,,,0.00,Wunderground v.1.15,2013-07-03 20:36:00,
2013-07-03 13:41:00,85.1,64.4,29.89,NW,306,4.0,4.0,50,0.00,,,0.00,Wunderground v.1.15,2013-07-03 20:41:00,
2013-07-03 13:47:00,85.2,63.9,29.89,West,273,2.0,4.0,49,0.00,,,0.00,Wunderground v.1.15,2013-07-03 20:47:00,
2013-07-03 13:52:00,85.4,64.1,29.89,NNW,340,1.0,4.0,49,0.00,,,0.00,Wunderground v.1.15,2013-07-03 20:52:00,
2013-07-03 13:57:00,85.8,64.4,29.89,WNW,292,5.0,7.0,49,0.00,,,0.00,Wunderground v.1.15,2013-07-03 20:57:00,
2013-07-03 14:02:00,87.4,64.7,29.89,West,268,3.0,5.0,47,0.00,,,0.00,Wunderground v.1.15,2013-07-03 21:02:00,
2013-07-03 14:07:00,87.7,63.7,29.88,WNW,288,4.0,8.0,45,0.00,,,0.00,Wunderground v.1.15,2013-07-03 21:07:00,
2013-07-03 14:12:00,88.3,64.3,29.88,NW,318,0.0,5.0,45,0.00,,,0.00,Wunderground v.1.15,2013-07-03 21:12:00,
2013-07-03 14:18:00,89.2,65.1,29.88,NW,319,0.0,7.0,45,0.00,,,0.00,Wunderground v.1.15,2013-07-03 21:18:00,
2013-07-03 14:23:00,89.0,64.3,29.88,NW,319,2.0,9.0,44,0.00,,,0.00,Wunderground v.1.15,2013-07-03 21:23:00,
2013-07-03 14:28:00,88.7,63.3,29.88,NNW,342,3.0,9.0,43,0.00,,,0.00,Wunderground v.1.15,2013-07-03 21:28:00,
2013-07-03 14:33:00,89.2,63.1,29.88,NW,315,4.0,4.0,42,0.00,,,0.00,Wunderground v.1.15,2013-07-03 21:33:00,
2013-07-03 14:38:00,89.9,63.0,29.88,NNW,346,1.0,5.0,41,0.00,,,0.00,Wunderground v.1.15,2013-07-03 21:38:00,
2013-07-03 14:44:00,90.5,62.9,29.88,NW,314,3.0,5.0,40,0.00,,,0.00,Wunderground v.1.15,2013-07-03 21:44:00,
2013-07-03 14:49:00,91.3,62.1,29.88,NW,310,0.0,6.0,38,0.00,,,0.00,Wunderground v.1.15,2013-07-03 21:49:00,
2013-07-03 14:55:00,91.5,63.8,29.87,West,276,3.0,10.0,40,0.00,,,0.00,Wunderground v.1.15,2013-07-03 21:55:00,
2013-07-03 15:00:00,91.6,65.3,29.87,North,9,5.0,5.0,42,0.00,,,0.00,Wunderground v.1.15,2013-07-03 22:00:00,
2013-07-03 15:05:00,91.2,64.9,29.87,NNW,340,0.0,5.0,42,0.00,,,0.00,Wunderground v.1.15,2013-07-03 22:05:00,
2013-07-03 15:10:00,90.5,64.3,29.87,North,351,7.0,7.0,42,0.00,,,0.00,Wunderground v.1.15,2013-07-03 22:10:00,
2013-07-03 15:15:00,89.8,65.6,29.87,NNW,337,10.0,10.0,45,0.00,,,0.00,Wunderground v.1.15,2013-07-03 22:15:00,
2013-07-03 15:20:00,90.3,65.4,29.87,NW,310,5.0,5.0,44,0.00,,,0.00,Wunderground v.1.15,2013-07-03 22:20:00,
2013-07-03 15:25:00,90.5,66.3,29.87,NNW,329,0.0,6.0,45,0.00,,,0.00,Wunderground v.1.15,2013-07-03 22:25:00,
2013-07-03 15:30:00,90.8,65.9,29.87,NNW,333,0.0,2.0,44,0.00,,,0.00,Wunderground v.1.15,2013-07-03 22:30:00,
2013-07-03 15:35:00,91.5,66.5,29.87,NNW,339,5.0,5.0,44,0.00,,,0.00,Wunderground v.1.15,2013-07-03 22:35:00,
2013-07-03 15:41:00,91.6,65.9,29.87,NW,325,4.0,9.0,43,0.00,,,0.00,Wunderground v.1.15,2013-07-03 22:41:00,
2013-07-03 15:46:00,90.3,65.4,29.86,WNW,288,0.0,12.0,44,0.00,,,0.00,Wunderground v.1.15,2013-07-03 22:46:00,
2013-07-03 15:51:00,90.3,66.1,29.86,WNW,290,4.0,6.0,45,0.00,,,0.00,Wunderground v.1.15,2013-07-03 22:51:00,
2013-07-03 15:57:00,90.8,65.9,29.86,NW,323,2.0,6.0,44,0.00,,,0.00,Wunderground v.1.15,2013-07-03 22:57:00,
2013-07-03 16:02:00,90.1,65.2,29.86,NNE,21,4.0,6.0,44,0.00,,,0.00,Wunderground v.1.15,2013-07-03 23:02:00,
2013-07-03 16:07:00,89.5,65.4,29.86,WNW,298,0.0,7.0,45,0.00,,,0.00,Wunderground v.1.15,2013-07-03 23:07:00,
2013-07-03 16:12:00,89.7,64.2,29.86,NNE,13,2.0,7.0,43,0.00,,,0.00,Wunderground v.1.15,2013-07-03 23:12:00,
2013-07-03 16:17:00,89.2,64.4,29.86,WNW,300,4.0,8.0,44,0.00,,,0.00,Wunderground v.1.15,2013-07-03 23:17:00,
2013-07-03 16:23:00,89.4,64.6,29.85,NNW,340,7.0,9.0,44,0.00,,,0.00,Wunderground v.1.15,2013-07-03 23:23:00,
2013-07-03 16:28:00,89.4,63.3,29.85,NNW,346,0.0,9.0,42,0.00,,,0.00,Wunderground v.1.15,2013-07-03 23:28:00,
2013-07-03 16:33:00,90.0,63.8,29.85,NNW,344,4.0,4.0,42,0.00,,,0.00,Wunderground v.1.15,2013-07-03 23:33:00,
2013-07-03 16:37:00,89.7,62.9,29.85,NW,311,2.0,10.0,41,0.00,,,0.00,Wunderground v.1.15,2013-07-03 23:37:00,
2013-07-03 16:43:00,90.2,64.0,29.85,WNW,300,4.0,7.0,42,0.00,,,0.00,Wunderground v.1.15,2013-07-03 23:43:00,
2013-07-03 16:48:00,89.4,64.0,29.85,NW,318,1.0,9.0,43,0.00,,,0.00,Wunderground v.1.15,2013-07-03 23:48:00,
2013-07-03 16:53:00,89.3,62.5,29.85,NNW,341,2.0,7.0,41,0.00,,,0.00,Wunderground v.1.15,2013-07-03 23:53:00,
2013-07-03 16:58:00,89.0,63.6,29.85,NNW,348,3.0,7.0,43,0.00,,,0.00,Wunderground v.1.15,2013-07-03 23:58:00,
2013-07-03 17:03:00,88.1,63.4,29.85,WNW,302,0.0,5.0,44,0.00,,,0.00,Wunderground v.1.15,2013-07-04 00:03:00,
2013-07-03 17:08:00,87.8,62.5,29.85,WSW,248,3.0,6.0,43,0.00,,,0.00,Wunderground v.1.15,2013-07-04 00:08:00,
2013-07-03 17:14:00,87.6,63.0,29.84,NNW,341,2.0,6.0,44,0.00,,,0.00,Wunderground v.1.15,2013-07-04 00:14:00,
2013-07-03 17:19:00,87.1,63.2,29.84,WNW,302,3.0,6.0,45,0.00,,,0.00,Wunderground v.1.15,2013-07-04 00:19:00,
2013-07-03 17:24:00,86.9,63.0,29.85,NNW,340,5.0,7.0,45,0.00,,,0.00,Wunderground v.1.15,2013-07-04 00:24:00,
2013-07-03 17:29:00,86.6,62.7,29.84,West,280,0.0,7.0,45,0.00,,,0.00,Wunderground v.1.15,2013-07-04 00:29:00,
2013-07-03 17:34:00,86.3,62.5,29.84,NW,319,4.0,6.0,45,0.00,,,0.00,Wunderground v.1.15,2013-07-04 00:34:00,
2013-07-03 17:40:00,86.1,62.3,29.84,WNW,283,1.0,7.0,45,0.00,,,0.00,Wunderground v.1.15,2013-07-04 00:40:00,
2013-07-03 17:45:00,85.8,62.6,29.84,NNW,336,0.0,5.0,46,0.00,,,0.00,Wunderground v.1.15,2013-07-04 00:45:00,
2013-07-03 17:50:00,85.4,62.3,29.84,NNW,345,7.0,8.0,46,0.00,,,0.00,Wunderground v.1.15,2013-07-04 00:50:00,
2013-07-03 17:55:00,85.3,62.2,29.84,WNW,301,4.0,8.0,46,0.00,,,0.00,Wunderground v.1.15,2013-07-04 00:55:00,
2013-07-03 18:00:00,85.5,62.4,29.84,NW,325,3.0,4.0,46,0.00,,,0.00,Wunderground v.1.15,2013-07-04 01:00:00,
2013-07-03 18:05:00,85.5,62.4,29.84,North,10,2.0,5.0,46,0.00,,,0.00,Wunderground v.1.15,2013-07-04 01:05:00,
2013-07-03 18:11:00,85.1,61.4,29.84,NW,315,4.0,4.0,45,0.00,,,0.00,Wunderground v.1.15,2013-07-04 01:11:00,
2013-07-03 18:17:00,85.0,61.9,29.84,NW,304,5.0,5.0,46,0.00,,,0.00,Wunderground v.1.15,2013-07-04 01:17:00,
2013-07-03 18:22:00,85.0,61.9,29.84,NW,315,0.0,3.0,46,0.00,,,0.00,Wunderground v.1.15,2013-07-04 01:22:00,
2013-07-03 18:27:00,84.6,62.1,29.84,NW,319,3.0,7.0,47,0.00,,,0.00,Wunderground v.1.15,2013-07-04 01:27:00,
2013-07-03 18:32:00,83.7,61.9,29.84,NNW,338,4.0,8.0,48,0.00,,,0.00,Wunderground v.1.15,2013-07-04 01:32:00,
2013-07-03 18:38:00,83.2,62.1,29.84,NNW,340,3.0,8.0,49,0.00,,,0.00,Wunderground v.1.15,2013-07-04 01:38:00,
2013-07-03 18:43:00,82.9,61.8,29.84,NW,317,1.0,4.0,49,0.00,,,0.00,Wunderground v.1.15,2013-07-04 01:43:00,
2013-07-03 18:48:00,82.7,62.2,29.84,NW,317,0.0,6.0,50,0.00,,,0.00,Wunderground v.1.15,2013-07-04 01:48:00,
2013-07-03 18:53:00,82.6,62.1,29.84,WNW,295,2.0,3.0,50,0.00,,,0.00,Wunderground v.1.15,2013-07-04 01:53:00,
2013-07-03 18:58:00,82.4,61.9,29.84,WNW,288,0.0,3.0,50,0.00,,,0.00,Wunderground v.1.15,2013-07-04 01:58:00,
2013-07-03 19:04:00,82.1,62.2,29.85,NW,310,2.0,4.0,51,0.00,,,0.00,Wunderground v.1.15,2013-07-04 02:04:00,
2013-07-03 19:09:00,82.0,62.6,29.85,WNW,285,4.0,5.0,52,0.00,,,0.00,Wunderground v.1.15,2013-07-04 02:09:00,
2013-07-03 19:14:00,81.8,62.5,29.85,NNW,346,2.0,3.0,52,0.00,,,0.00,Wunderground v.1.15,2013-07-04 02:14:00,
2013-07-03 19:19:00,81.4,62.6,29.85,NNW,334,2.0,4.0,53,0.00,,,0.00,Wunderground v.1.15,2013-07-04 02:19:00,
2013-07-03 19:24:00,80.8,62.1,29.85,NW,310,2.0,3.0,53,0.00,,,0.00,Wunderground v.1.15,2013-07-04 02:24:00,
2013-07-03 19:30:00,79.9,62.3,29.86,NW,310,1.0,1.0,55,0.00,,,0.00,Wunderground v.1.15,2013-07-04 02:30:00,
2013-07-03 19:35:00,79.3,62.2,29.86,NNW,338,0.0,3.0,56,0.00,,,0.00,Wunderground v.1.15,2013-07-04 02:35:00,
2013-07-03 19:40:00,78.8,62.3,29.86,NNW,329,2.0,2.0,57,0.00,,,0.00,Wunderground v.1.15,2013-07-04 02:40:00,
2013-07-03 19:45:00,78.7,62.2,29.86,NW,313,0.0,4.0,57,0.00,,,0.00,Wunderground v.1.15,2013-07-04 02:45:00,
2013-07-03 19:50:00,78.4,62.4,29.86,NNW,342,4.0,4.0,58,0.00,,,0.00,Wunderground v.1.15,2013-07-04 02:50:00,
2013-07-03 19:55:00,78.0,62.0,29.86,NNW,333,0.0,5.0,58,0.00,,,0.00,Wunderground v.1.15,2013-07-04 02:55:00,
2013-07-03 20:01:00,77.9,62.4,29.86,NNW,331,2.0,2.0,59,0.00,,,0.00,Wunderground v.1.15,2013-07-04 03:01:00,
2013-07-03 20:06:00,77.7,62.2,29.86,NNW,334,0.0,2.0,59,0.00,,,0.00,Wunderground v.1.15,2013-07-04 03:06:00,
2013-07-03 20:11:00,77.6,62.1,29.86,NNW,340,3.0,3.0,59,0.00,,,0.00,Wunderground v.1.15,2013-07-04 03:11:00,
2013-07-03 20:16:00,77.3,62.3,29.86,NW,309,0.0,3.0,60,0.00,,,0.00,Wunderground v.1.15,2013-07-04 03:16:00,
2013-07-03 20:21:00,76.9,62.0,29.86,NNW,334,0.0,1.0,60,0.00,,,0.00,Wunderground v.1.15,2013-07-04 03:21:00,
2013-07-03 20:26:00,76.6,62.1,29.86,NNW,337,0.0,2.0,61,0.00,,,0.00,Wunderground v.1.15,2013-07-04 03:26:00,
2013-07-03 20:32:00,76.3,61.9,29.86,NNW,337,0.0,1.0,61,0.00,,,0.00,Wunderground v.1.15,2013-07-04 03:32:00,
2013-07-03 20:37:00,76.1,62.1,29.86,NNW,337,0.0,1.0,62,0.00,,,0.00,Wunderground v.1.15,2013-07-04 03:37:00,
2013-07-03 20:42:00,76.0,62.0,29.87,NNW,337,0.0,0.0,62,0.00,,,0.00,Wunderground v.1.15,2013-07-04 03:42:00,
2013-07-03 20:48:00,75.8,61.8,29.87,NNW,337,0.0,3.0,62,0.00,,,0.00,Wunderground v.1.15,2013-07-04 03:48:00,
2013-07-03 20:53:00,75.8,61.8,29.87,NNW,337,0.0,0.0,62,0.00,,,0.00,Wunderground v.1.15,2013-07-04 03:53:00,
2013-07-03 20:58:00,75.9,61.9,29.86,NNW,337,0.0,1.0,62,0.00,,,0.00,Wunderground v.1.15,2013-07-04 03:58:00,
2013-07-03 21:01:00,75.8,61.8,29.86,NNW,337,1.0,2.0,62,0.00,,,0.00,Wunderground v.1.15,2013-07-04 04:01:00,
2013-07-03 21:02:00,75.8,61.8,29.86,NNW,337,0.0,3.0,62,0.00,,,0.00,Wunderground v.1.15,2013-07-04 04:02:00,
2013-07-03 21:07:00,75.6,61.7,29.86,NNW,337,0.0,3.0,62,0.00,,,0.00,Wunderground v.1.15,2013-07-04 04:07:00,
2013-07-03 21:11:00,75.5,61.6,29.87,NNW,337,0.0,1.0,62,0.00,,,0.00,Wunderground v.1.15,2013-07-04 04:11:00,
2013-07-03 21:17:00,75.2,61.7,29.87,NW,313,0.0,3.0,63,0.00,,,0.00,Wunderground v.1.15,2013-07-04 04:17:00,
2013-07-03 21:22:00,74.9,61.9,29.87,NNW,338,3.0,4.0,64,0.00,,,0.00,Wunderground v.1.15,2013-07-04 04:22:00,
2013-07-03 21:27:00,74.6,61.6,29.87,NNW,331,0.0,4.0,64,0.00,,,0.00,Wunderground v.1.15,2013-07-04 04:27:00,
2013-07-03 21:32:00,74.4,61.4,29.87,NNW,330,0.0,2.0,64,0.00,,,0.00,Wunderground v.1.15,2013-07-04 04:32:00,
2013-07-03 21:37:00,74.2,61.2,29.87,NNW,330,0.0,2.0,64,0.00,,,0.00,Wunderground v.1.15,2013-07-04 04:37:00,
2013-07-03 21:42:00,73.9,61.4,29.87,NNW,330,0.0,2.0,65,0.00,,,0.00,Wunderground v.1.15,2013-07-04 04:42:00,
2013-07-03 21:47:00,73.4,60.9,29.87,NNW,342,1.0,4.0,65,0.00,,,0.00,Wunderground v.1.15,2013-07-04 04:47:00,
2013-07-03 21:52:00,73.1,61.1,29.87,NW,324,2.0,3.0,66,0.00,,,0.00,Wunderground v.1.15,2013-07-04 04:52:00,
2013-07-03 21:57:00,72.8,60.8,29.87,NW,316,0.0,3.0,66,0.00,,,0.00,Wunderground v.1.15,2013-07-04 04:57:00,
2013-07-03 22:02:00,72.7,61.1,29.88,NW,315,0.0,1.0,67,0.00,,,0.00,Wunderground v.1.15,2013-07-04 05:02:00,
2013-07-03 22:07:00,72.5,60.9,29.87,NW,317,1.0,3.0,67,0.00,,,0.00,Wunderground v.1.15,2013-07-04 05:07:00,
2013-07-03 22:12:00,72.2,61.0,29.87,NW,317,0.0,3.0,68,0.00,,,0.00,Wunderground v.1.15,2013-07-04 05:12:00,
2013-07-03 22:17:00,72.0,60.9,29.87,NW,314,0.0,3.0,68,0.00,,,0.00,Wunderground v.1.15,2013-07-04 05:17:00,
2013-07-03 22:22:00,72.0,60.9,29.88,NW,314,0.0,1.0,68,0.00,,,0.00,Wunderground v.1.15,2013-07-04 05:22:00,
2013-07-03 22:27:00,71.9,61.2,29.88,NW,314,0.0,1.0,69,0.00,,,0.00,Wunderground v.1.15,2013-07-04 05:27:00,
2013-07-03 22:32:00,71.7,61.0,29.88,NW,316,0.0,3.0,69,0.00,,,0.00,Wunderground v.1.15,2013-07-04 05:32:00,
2013-07-03 22:37:00,71.7,61.0,29.88,NW,315,0.0,3.0,69,0.00,,,0.00,Wunderground v.1.15,2013-07-04 05:37:00,
2013-07-03 22:42:00,71.6,60.9,29.88,NW,315,1.0,1.0,69,0.00,,,0.00,Wunderground v.1.15,2013-07-04 05:42:00,
2013-07-03 22:47:00,71.5,61.2,29.88,NW,316,0.0,2.0,70,0.00,,,0.00,Wunderground v.1.15,2013-07-04 05:47:00,
2013-07-03 22:52:00,71.3,61.0,29.88,NW,316,0.0,1.0,70,0.00,,,0.00,Wunderground v.1.15,2013-07-04 05:52:00,
2013-07-03 22:57:00,71.1,61.2,29.88,NW,322,1.0,3.0,71,0.00,,,0.00,Wunderground v.1.15,2013-07-04 05:57:00,
2013-07-03 23:02:00,70.8,60.9,29.88,NW,320,0.0,1.0,71,0.00,,,0.00,Wunderground v.1.15,2013-07-04 06:02:00,
2013-07-03 23:07:00,70.7,61.2,29.88,NW,320,0.0,1.0,72,0.00,,,0.00,Wunderground v.1.15,2013-07-04 06:07:00,
2013-07-03 23:12:00,70.4,60.9,29.88,NW,319,0.0,0.0,72,0.00,,,0.00,Wunderground v.1.15,2013-07-04 06:12:00,
2013-07-03 23:17:00,70.3,60.8,29.88,NW,320,0.0,0.0,72,0.00,,,0.00,Wunderground v.1.15,2013-07-04 06:17:00,
2013-07-03 23:22:00,70.2,60.7,29.88,NW,320,0.0,1.0,72,0.00,,,0.00,Wunderground v.1.15,2013-07-04 06:22:00,
2013-07-03 23:27:00,70.0,60.6,29.88,NW,320,1.0,1.0,72,0.00,,,0.00,Wunderground v.1.15,2013-07-04 06:27:00,
2013-07-03 23:32:00,69.8,60.8,29.88,NW,319,0.0,1.0,73,0.00,,,0.00,Wunderground v.1.15,2013-07-04 06:32:00,
2013-07-03 23:37:00,69.7,60.7,29.88,NW,319,0.0,1.0,73,0.00,,,0.00,Wunderground v.1.15,2013-07-04 06:37:00,
2013-07-03 23:42:00,69.6,60.9,29.88,NW,320,0.0,2.0,74,0.00,,,0.00,Wunderground v.1.15,2013-07-04 06:42:00,
2013-07-03 23:47:00,69.4,60.8,29.88,NW,320,1.0,2.0,74,0.00,,,0.00,Wunderground v.1.15,2013-07-04 06:47:00,
2013-07-03 23:52:00,69.2,60.6,29.88,NW,313,0.0,2.0,74,0.00,,,0.00,Wunderground v.1.15,2013-07-04 06:52:00,
2013-07-03 23:57:00,69.1,60.5,29.88,NW,313,1.0,3.0,74,0.00,,,0.00,Wunderground v.1.15,2013-07-04 06:57:00,